Weather History for Miles City, MT

Change the Weather History Date:

Thursday, November 25, 2010

  Actual Average Record
Temperature  
Mean Temperature 10 °F 27 °F  
Max Temperature 28 °F 38 °F 70 °F (1960)
Min Temperature -8 °F 16 °F -18 °F (1977)
Degree Days  
Heating Degree Days 55 38  
Month to date heating degree days 886 790  
Since 1 July heating degree days 1534 1601  
Cooling Degree Days 0 0  
Month to date cooling degree days 0 0  
Year to date cooling degree days 609 730  
Moisture  
Dew Point 7 °F    
Average Humidity 76    
Maximum Humidity 92    
Minimum Humidity 59    
Precipitation  
Precipitation T in 0.01 in 0.24 in (1981)
Month to date precipitation 0.47 0.35  
Year to date precipitation 17.75 12.11  
Sea Level Pressure  
Sea Level Pressure 29.98 in    
Wind  
Wind Speed 17 mph (West)    
Max Wind Speed 33 mph    
Max Gust Speed 39 mph    
Visibility 8 miles    
Events Snow    
T = Trace of Precipitation, MM = Missing Value Source: NWS Daily Summary

Daily Weather History Graph

Daily Weather History Graph

Search for Another Location

Airport:

Trip Planner

Search our weather history database for the weather conditions in past years. The results will help you decide how hot, cold, wet, or windy it might be!

Date:

Astronomy

Nov. 25, 2010 Rise Set
Actual Time 7:19 AM MST 4:21 PM MST
Civil Twilight 6:45 AM MST 4:55 PM MST
Nautical Twilight 6:08 AM MST 5:32 PM MST
Astronomical Twilight 5:31 AM MST 6:08 PM MST
Moon 8:23 PM MST (11/25) 10:50 AM MST (11/25)
Length of Visible Light 10h 10m
Length of Day
9h 02m
Waning Gibbous, 82% of the Moon is Illuminated
Nov 25
Waning Gibbous
Nov 28
Last Quarter
Dec 5
New
Dec 13
First Quarter
Dec 21
Full

Hourly Weather History & Observations

Time (MST) Temp. Windchill Dew Point Humidity Pressure Visibility Wind Dir Wind Speed Gust Speed Precip Events Conditions
12:06 AM -7.6 °F -25.7 °F -11.2 °F 84% 29.83 in 2.5 mi West 10.4 mph - 0.00 in Snow Light Snow
12:28 AM -4.0 °F -22.1 °F -7.6 °F 85% 29.83 in 3.0 mi West 11.5 mph - 0.00 in Snow Light Snow
12:53 AM -2.9 °F -21.6 °F -7.1 °F 82% 30.01 in 3.0 mi West 12.7 mph - 0.00 in Snow Light Snow
1:53 AM -0.9 °F -19.1 °F -6.0 °F 79% 30.01 in 8.0 mi West 12.7 mph - 0.00 in   Overcast
2:53 AM -0.0 °F -18.7 °F -4.0 °F 83% 30.01 in 4.0 mi West 13.8 mph - 0.00 in Snow Light Snow
3:53 AM 1.9 °F -15.5 °F -2.9 °F 80% 30.02 in 10.0 mi WNW 12.7 mph - 0.00 in   Overcast
4:53 AM 3.9 °F -12.2 °F -2.0 °F 76% 30.02 in 10.0 mi WNW 11.5 mph - N/A   Overcast
5:53 AM 5.0 °F -2.1 °F -0.9 °F 76% 30.04 in 10.0 mi West 3.5 mph - N/A   Overcast
6:53 AM 7.0 °F -5.7 °F 1.0 °F 77% 30.05 in 10.0 mi WSW 8.1 mph - N/A   Overcast
7:53 AM 5.0 °F -6.9 °F -2.0 °F 73% 30.07 in 10.0 mi WNW 6.9 mph - N/A   Clear
8:53 AM 3.0 °F -8.0 °F -2.0 °F 80% 30.07 in 10.0 mi SW 5.8 mph - N/A   Clear
9:53 AM 8.1 °F -8.4 °F -0.9 °F 67% 30.06 in 10.0 mi WSW 13.8 mph - N/A   Clear
10:53 AM 10.9 °F -7.0 °F 1.0 °F 64% 30.02 in 10.0 mi West 18.4 mph - N/A   Clear
11:53 AM 15.1 °F -2.0 °F 3.9 °F 61% 30.01 in 10.0 mi West 19.6 mph - N/A   Clear
12:53 PM 18.0 °F 4.8 °F 8.1 °F 65% 29.98 in 10.0 mi WSW 12.7 mph - N/A   Clear
1:53 PM 21.9 °F 5.5 °F 12.9 °F 68% 29.95 in 6.0 mi West 24.2 mph 33.4 mph N/A   Haze
2:53 PM 21.9 °F 5.5 °F 12.9 °F 68% 29.95 in 6.0 mi West 24.2 mph - N/A   Haze
3:53 PM 23.0 °F 7.2 °F 15.1 °F 72% 29.96 in 10.0 mi West 23.0 mph - N/A   Overcast
4:53 PM 25.0 °F 9.9 °F 18.0 °F 75% 29.95 in 6.0 mi West 23.0 mph 31.1 mph 0.00 in   Overcast
5:25 PM 24.8 °F 8.7 °F 21.2 °F 86% 29.83 in 2.0 mi West 26.5 mph 34.5 mph 0.00 in Snow Light Snow
5:53 PM 25.0 °F 10.6 °F 21.0 °F 85% 29.97 in 3.0 mi West 20.7 mph 31.1 mph 0.00 in Snow Light Snow
6:53 PM 26.1 °F 9.3 °F 19.9 °F 78% 29.96 in 3.0 mi West 31.1 mph 39.1 mph 0.00 in   Mostly Cloudy
7:53 PM 27.0 °F 11.6 °F 19.0 °F 72% 29.98 in 6.0 mi WSW 26.5 mph - 0.00 in   Haze
8:53 PM 27.0 °F 13.2 °F 19.0 °F 72% 29.98 in 10.0 mi West 20.7 mph - N/A   Clear
9:53 PM 28.0 °F 13.3 °F 19.9 °F 72% 29.99 in 10.0 mi West 25.3 mph - N/A   Overcast
10:53 PM 28.0 °F 13.3 °F 19.9 °F 72% 30.00 in 10.0 mi West 25.3 mph - N/A   Overcast
11:53 PM 27.0 °F 12.8 °F 18.0 °F 69% 30.03 in 10.0 mi West 21.9 mph - N/A   Scattered Clouds